Weather History for Chipley, FL

Change the Weather History Date:

Tuesday, February 26, 2013

  Actual Average (KMAI) Record (KMAI)
Temperature  
Mean Temperature 54 °F 57 °F  
Max Temperature 60 °F 69 °F 82 °F (2011)
Min Temperature 48 °F 45 °F 39 °F (2002)
Degree Days  
Heating Degree Days 11    
Month to date heating degree days  
Since 1 July heating degree days  
Cooling Degree Days 0    
Month to date cooling degree days  
Year to date cooling degree days  
Growing Degree Days 4 (Base 50)    
Moisture  
Dew Point 36 °F    
Average Humidity 51    
Maximum Humidity 72    
Minimum Humidity 39    
Precipitation  
Precipitation 0.02 in 0.20 in 1.46 in (2003)
Month to date precipitation 4.59  
Year to date precipitation 9.63  
Sea Level Pressure  
Sea Level Pressure 29.79 in    
Wind  
Wind Speed 8 mph (WSW)    
Max Wind Speed 14 mph    
Max Gust Speed 24 mph    
Visibility 10 miles    
Events      
T = Trace of Precipitation, MM = Missing Value Source: NWS Daily Summary

Daily Weather History Graph

Daily Weather History Graph

Search for Another Location

Airport:

Trip Planner

Search our weather history database for the weather conditions in past years. The results will help you decide how hot, cold, wet, or windy it might be!

Date:

Astronomy

Feb. 26, 2013 Rise Set
Actual Time 6:11 AM CST 5:38 PM CST
Civil Twilight 5:47 AM CST 6:03 PM CST
Nautical Twilight 5:19 AM CST 6:31 PM CST
Astronomical Twilight 4:51 AM CST 6:59 PM CST
Moon 6:45 PM CST (2/26) 6:20 AM CST (2/26)
Length of Visible Light 12h 15m
Length of Day
11h 27m
Full, 99% of the Moon is Illuminated
Feb 26
Full
Mar 4
Last Quarter
Mar 11
New
Mar 19
First Quarter
Mar 27
Full

Hourly Weather History & Observations

Time (CST) Temp. Dew Point Humidity Pressure Visibility Wind Dir Wind Speed Gust Speed Precip Events Conditions
12:15 AM 60.8 °F 42.8 °F 52% 29.60 in 10.0 mi WSW 8.1 mph - N/A   Clear
12:35 AM 60.8 °F 41.0 °F 48% 29.60 in 10.0 mi WSW 9.2 mph - N/A   Clear
12:55 AM 59.0 °F 39.2 °F 48% 29.61 in 10.0 mi SW 9.2 mph 16.1 mph N/A   Clear
1:15 AM 57.2 °F 39.2 °F 51% 29.62 in 10.0 mi SW 8.1 mph - N/A   Clear
1:35 AM 57.2 °F 39.2 °F 51% 29.63 in 10.0 mi WSW 9.2 mph - N/A   Clear
1:55 AM 57.2 °F 37.4 °F 48% 29.64 in 10.0 mi SW 6.9 mph - N/A   Clear
2:15 AM 55.4 °F 35.6 °F 47% 29.64 in 10.0 mi WSW 6.9 mph 17.3 mph N/A   Clear
2:35 AM 55.4 °F 33.8 °F 44% 29.64 in 10.0 mi WSW 5.8 mph 20.7 mph N/A   Clear
2:55 AM 53.6 °F 33.8 °F 47% 29.64 in 10.0 mi West 13.8 mph 23.0 mph N/A   Clear
3:15 AM 53.6 °F 33.8 °F 47% 29.65 in 10.0 mi WSW 11.5 mph 19.6 mph N/A   Clear
3:35 AM 51.8 °F 33.8 °F 50% 29.65 in 10.0 mi WSW 10.4 mph 18.4 mph N/A   Clear
3:55 AM 51.8 °F 33.8 °F 50% 29.65 in 10.0 mi West 10.4 mph 17.3 mph N/A   Clear
4:15 AM 51.8 °F 33.8 °F 50% 29.66 in 10.0 mi West 8.1 mph 18.4 mph N/A   Clear
4:35 AM 51.8 °F 33.8 °F 50% 29.67 in 10.0 mi WSW 5.8 mph - N/A   Clear
4:55 AM 50.0 °F 32.0 °F 50% 29.67 in 10.0 mi West 10.4 mph 24.2 mph N/A   Clear
5:15 AM 48.2 °F 32.0 °F 54% 29.68 in 10.0 mi West 12.7 mph 23.0 mph N/A   Clear
5:35 AM 48.2 °F 32.0 °F 54% 29.70 in 10.0 mi West 8.1 mph 18.4 mph N/A   Clear
5:55 AM 48.2 °F 32.0 °F 54% 29.71 in 10.0 mi West 6.9 mph - N/A   Clear
6:15 AM 48.2 °F 32.0 °F 54% 29.73 in 10.0 mi West 12.7 mph 20.7 mph N/A   Clear
6:35 AM 48.2 °F 32.0 °F 54% 29.74 in 10.0 mi WSW 9.2 mph 23.0 mph N/A   Clear
6:55 AM 48.2 °F 32.0 °F 54% 29.75 in 10.0 mi West 9.2 mph 16.1 mph N/A   Clear
7:15 AM 48.2 °F 32.0 °F 54% 29.75 in 10.0 mi WSW 6.9 mph 17.3 mph N/A   Clear
7:35 AM 48.2 °F 32.0 °F 54% 29.75 in 10.0 mi West 6.9 mph - N/A   Clear
7:55 AM 48.2 °F 32.0 °F 54% 29.76 in 10.0 mi West 8.1 mph 17.3 mph N/A   Clear
8:15 AM 48.2 °F 32.0 °F 54% 29.77 in 10.0 mi WSW 6.9 mph 19.6 mph N/A   Clear
8:35 AM 50.0 °F 32.0 °F 50% 29.78 in 10.0 mi WSW 9.2 mph 16.1 mph N/A   Clear
8:55 AM 51.8 °F 32.0 °F 47% 29.80 in 10.0 mi West 10.4 mph 21.9 mph N/A   Clear
9:15 AM 51.8 °F 33.8 °F 50% 29.81 in 8.0 mi West 6.9 mph 21.9 mph N/A   Clear
9:35 AM 51.8 °F 32.0 °F 47% 29.82 in 10.0 mi West 11.5 mph 20.7 mph N/A   Clear
9:55 AM 53.6 °F 33.8 °F 47% 29.81 in 10.0 mi West 11.5 mph 16.1 mph N/A   Clear
10:15 AM 53.6 °F 33.8 °F 47% 29.82 in 10.0 mi WSW 10.4 mph 18.4 mph N/A   Clear
10:35 AM 55.4 °F 33.8 °F 44% 29.82 in 10.0 mi WSW 6.9 mph 20.7 mph N/A   Clear
10:55 AM 55.4 °F 33.8 °F 44% 29.83 in 10.0 mi West 9.2 mph 18.4 mph N/A   Clear
11:15 AM 55.4 °F 33.8 °F 44% 29.82 in 10.0 mi SW 5.8 mph - N/A   Clear
11:35 AM 55.4 °F 33.8 °F 44% 29.81 in 10.0 mi WSW 4.6 mph 16.1 mph N/A   Clear
11:55 AM 57.2 °F 35.6 °F 44% 29.82 in 10.0 mi WSW 8.1 mph 16.1 mph N/A   Clear
12:15 PM 57.2 °F 35.6 °F 44% 29.82 in 10.0 mi West 11.5 mph - N/A   Clear
12:35 PM 57.2 °F 35.6 °F 44% 29.81 in 10.0 mi West 9.2 mph 16.1 mph N/A   Clear
12:55 PM 57.2 °F 35.6 °F 44% 29.80 in 10.0 mi West 8.1 mph - N/A   Clear
1:15 PM 59.0 °F 35.6 °F 42% 29.80 in 10.0 mi WNW 9.2 mph 16.1 mph N/A   Clear
1:35 PM 59.0 °F 35.6 °F 42% 29.78 in 10.0 mi West 5.8 mph - N/A   Clear
1:55 PM 59.0 °F 35.6 °F 42% 29.78 in 10.0 mi WSW 8.1 mph 16.1 mph N/A   Clear
2:15 PM 60.8 °F 35.6 °F 39% 29.79 in 10.0 mi SW 5.8 mph - N/A   Clear
2:35 PM 59.0 °F 35.6 °F 42% 29.79 in 10.0 mi WSW 6.9 mph 16.1 mph N/A   Clear
2:55 PM 59.0 °F 37.4 °F 45% 29.79 in 10.0 mi SW 6.9 mph - N/A   Clear
3:15 PM 59.0 °F 35.6 °F 42% 29.81 in 10.0 mi WSW 8.1 mph - N/A   Clear
3:35 PM 59.0 °F 35.6 °F 42% 29.82 in 10.0 mi WSW 6.9 mph 16.1 mph N/A   Clear
3:55 PM 59.0 °F 35.6 °F 42% 29.81 in 10.0 mi WSW 9.2 mph - N/A   Clear
4:15 PM 57.2 °F 35.6 °F 44% 29.81 in 10.0 mi WSW 6.9 mph - N/A   Clear
4:35 PM 57.2 °F 37.4 °F 48% 29.82 in 10.0 mi WSW 8.1 mph - N/A   Clear
4:55 PM 57.2 °F 37.4 °F 48% 29.82 in 10.0 mi WSW 9.2 mph - N/A   Clear
5:15 PM 57.2 °F 37.4 °F 48% 29.83 in 10.0 mi WSW 9.2 mph - N/A   Clear
5:35 PM 57.2 °F 37.4 °F 48% 29.84 in 10.0 mi WSW 5.8 mph - N/A   Clear
5:55 PM 57.2 °F 37.4 °F 48% 29.85 in 10.0 mi SW 6.9 mph - N/A   Unknown
6:15 PM 57.2 °F 37.4 °F 48% 29.85 in 10.0 mi WSW 5.8 mph - N/A   Clear
6:35 PM 55.4 °F 37.4 °F 51% 29.86 in 10.0 mi SW 3.5 mph - N/A   Clear
6:55 PM 55.4 °F 37.4 °F 51% 29.87 in 10.0 mi WSW 5.8 mph - N/A   Clear
7:15 PM 55.4 °F 37.4 °F 51% 29.88 in 10.0 mi SW 3.5 mph - N/A   Clear
7:35 PM 57.2 °F 37.4 °F 48% 29.90 in 10.0 mi SSW 4.6 mph - N/A   Clear
7:55 PM 55.4 °F 39.2 °F 54% 29.90 in 10.0 mi SSW 6.9 mph - N/A   Clear
8:15 PM 55.4 °F 41.0 °F 58% 29.91 in 10.0 mi SW 4.6 mph - N/A   Clear
8:35 PM 55.4 °F 41.0 °F 58% 29.92 in 10.0 mi SSW 5.8 mph - N/A   Clear
9:15 PM 55.4 °F 42.8 °F 63% 29.93 in 10.0 mi SSW 5.8 mph - N/A   Clear
9:35 PM 55.4 °F 42.8 °F 63% 29.94 in 10.0 mi SSW 3.5 mph - N/A   Clear
9:55 PM 55.4 °F 42.8 °F 63% 29.94 in 10.0 mi South 4.6 mph - N/A   Clear
10:15 PM 53.6 °F 44.6 °F 72% 29.95 in 10.0 mi SSW 5.8 mph - N/A   Clear
10:55 PM 53.6 °F 44.6 °F 72% 29.95 in 10.0 mi SSW 4.6 mph - N/A   Clear
11:15 PM 53.6 °F 44.6 °F 72% 29.95 in 10.0 mi SW 3.5 mph - N/A   Clear
11:35 PM 53.6 °F 44.6 °F 72% 29.95 in 10.0 mi SSW 3.5 mph - N/A   Clear
11:55 PM 53.6 °F 44.6 °F 72% 29.95 in 10.0 mi Calm Calm - N/A   Clear